Location: Unnamed
(34.9039°S, 56.1757°W)
Time: 12:53:01
(UTC-03:00)

ISS - Pass Details

Date: 17 December 2023
Orbit: 414 x 422 km, 51.6° (Epoch: 03 March)

Event Time Altitude Azimuth Distance (km) Brightness Sun altitude
Rises 00:41:05 0° 214° (SW) 2,428 0.9 -31.8°
Reaches altitude 10° 00:43:55 10° 190° (S) 1,550 0.0 -31.7°
Enters shadow 00:44:43 13° 178° (S) 1,382 -0.3 -31.7°
